Regional Weather Roundup
Issued by NWS Sioux Falls, SD

Home | Current Version | Previous Version | Graphics & Text | Print | Product List | Glossary Off
Versions: 1 2 3 4 5 6 7 8 9 10 11 12 13 14 15 16 17 18 19 20 21 22 23 24 25 26 27 28 29 30 31 32 33 34 35 36 37 38 39 40 41 42 43 44 45 46 47 48 49 50

000
ASUS43 KFSD 240002
RWRFSD

WEATHER ROUNDUP FOR SE SOUTH DAKOTA/SW MINNESOTA/NW IOWA
NATIONAL WEATHER SERVICE SIOUX FALLS SD
600 PM CST THU FEB 23 2017

NOTE: "FAIR" INDICATES FEW OR NO CLOUDS BELOW 12,000 FEET WITH NO
SIGNIFICANT WEATHER AND OR OBSTRUCTIONS TO VISIBILITY.


SDZ038>040-050-052>070-240100-
SOUTHEAST SOUTH DAKOTA

CITY           SKY/WX    TMP DP  RH WIND       PRES   REMARKS
BROOKINGS      CLOUDY    28  23  81 NE20      29.84F WCI  15
CHAMBERLAIN    CLOUDY    31  26  81 N21G29    29.86S WCI  18
6HR MIN TEMP:  31; 6HR MAX TEMP:  32;

HURON          CLOUDY    30  23  75 NE24      29.90F WCI  16
6HR MIN TEMP:  30; 6HR MAX TEMP:  33;

MADISON        LGT RAIN  27  27 100 NE21G32   29.82F WCI  13
MITCHELL       CLOUDY    30  26  85 NE22G31   29.85S WCI  17
6HR MIN TEMP:  30; 6HR MAX TEMP:  33; 6HR PCP: TRACE;

SIOUX FALLS    LGT SNOW  30  27  88 NE22G31   29.79S FOG     WCI  17
6HR MIN TEMP:  30; 6HR MAX TEMP:  32; 6HR PCP:  0.07;

WINNER         LGT SNOW  28  25  88 N22G31    29.84R FOG     WCI  14
YANKTON        CLOUDY    30  27  86 N20G28    29.75R WCI  18
$$

MNZ071-072-080-081-089-090-097-098-240100-
SOUTHWEST MINNESOTA

CITY           SKY/WX    TMP DP  RH WIND       PRES   REMARKS
FAIRMONT       LGT SNOW  31  29  92 NE21      29.81F FOG     WCI  18
JACKSON        LGT SNOW  30  28  93 NE21G31   29.79F VSB 1   WCI  17
LUVERNE        FLURRIES  30  27  86 NE20G31   29.78S WCI  18
MARSHALL       CLOUDY    30  26  85 N17G23    29.90F WCI  18
6HR MIN TEMP:  30; 6HR MAX TEMP:  31;

MONTEVIDEO     CLOUDY    30  27  86 NE12      29.96R WCI  21
PIPESTONE      LGT SNOW  28  23  80 NE26      29.79F WCI  13
REDWOOD FALLS  CLOUDY    31  23  72 VRB6      29.91R WCI  25
TRACY          FLURRIES  31  28  88 N21       29.87F WCI  18
WINDOM         MIX PCPN  28  27  93 N21G26    29.82F WCI  15
WORTHINGTON    MIX PCPN  28  26  92 N23G33    29.77F WCI  14
$$

IAZ001>003-012>014-020>022-031-032-NEZ013-014-SDZ071-240100-
NORTHWEST IOWA

CITY           SKY/WX    TMP DP  RH WIND       PRES   REMARKS
CHEROKEE       LGT SNOW  32  31  95 NE23G32   29.70R WCI  19
DENISON        CLOUDY    34  34 100 NE28G35   29.61R WCI  20
ESTHERVILLE    LGT SNOW  30  29  96 NE26G35   29.75F FOG     WCI  16
LE MARS        SNOW      32  30  93 NE21G30   29.73R WCI  20
ORANGE CITY    LGT SNOW  30  28  93 NE14G29   29.71S WCI  20
SHELDON        LGT RAIN  30  30 100 NE30G38   29.71S WCI  15
SIOUX CITY     LGT SNOW  34  30  86 NE18G29   29.70S FOG     WCI  23
6HR MIN TEMP:  34; 6HR MAX TEMP:  38; 6HR PCP:  0.06;

SPENCER        SNOW      31  29  92 NE31G41   29.73F VSB 1/2 WCI  16
6HR MIN TEMP:  31; 6HR MAX TEMP:  35; 6HR PCP: TRACE;

STORM LAKE     LGT RAIN  32  30  93 NE33G39   29.70R WCI  17
$$

ABBREVIATIONS USED IN REMARKS
   TC - TEMPERATURE IN CELSIUS
  WCI - WIND CHILL INDEX
   HX - HEAT INDEX
  VSB - VISIBILITY





USA.gov is the U.S. government's official web portal to all federal, state and local government web resources and services.